Year,Month,Day,Hour,Minute,Value (Times are PST for windspeed in km/hr)
2019,04,26,00,00,0.00
2019,04,26,00,01,0.20
2019,04,26,00,02,0.90
2019,04,26,00,03,0.00
2019,04,26,00,04,1.60
2019,04,26,00,05,0.80
2019,04,26,00,06,0.10
2019,04,26,00,07,0.00
2019,04,26,00,08,0.00
2019,04,26,00,09,0.00
2019,04,26,00,10,0.00
2019,04,26,00,11,0.00
2019,04,26,00,12,1.10
2019,04,26,00,13,1.30
2019,04,26,00,14,1.20
2019,04,26,00,15,1.30
2019,04,26,00,16,1.60
2019,04,26,00,17,1.30
2019,04,26,00,18,1.70
2019,04,26,00,19,0.50
2019,04,26,00,20,0.30
2019,04,26,00,21,2.40
2019,04,26,00,22,0.50
2019,04,26,00,23,1.40
2019,04,26,00,24,0.70
2019,04,26,00,25,1.20
2019,04,26,00,26,0.30
2019,04,26,00,27,1.90
2019,04,26,00,28,0.10
2019,04,26,00,29,1.00
2019,04,26,00,30,0.30
2019,04,26,00,31,0.40
2019,04,26,00,32,1.20
2019,04,26,00,33,1.30
2019,04,26,00,34,0.50
2019,04,26,00,35,2.90
2019,04,26,00,36,1.30
2019,04,26,00,37,0.10
2019,04,26,00,38,0.00
2019,04,26,00,39,0.80
2019,04,26,00,40,0.70
2019,04,26,00,41,1.40
2019,04,26,00,42,0.50
2019,04,26,00,43,0.00
2019,04,26,00,44,0.80
2019,04,26,00,45,1.20
2019,04,26,00,46,2.10
2019,04,26,00,47,3.20
2019,04,26,00,48,1.30
2019,04,26,00,49,0.20
2019,04,26,00,50,0.20
2019,04,26,00,51,0.20
2019,04,26,00,52,0.00
2019,04,26,00,53,1.80
2019,04,26,00,54,0.50
2019,04,26,00,55,0.80
2019,04,26,00,56,0.20
2019,04,26,00,57,0.10
2019,04,26,00,58,0.30
2019,04,26,00,59,1.70
2019,04,26,01,00,0.20
2019,04,26,01,01,0.00
2019,04,26,01,02,0.00
2019,04,26,01,03,0.00
2019,04,26,01,04,0.10
2019,04,26,01,05,1.80
2019,04,26,01,06,0.10
2019,04,26,01,07,0.60
2019,04,26,01,08,1.40
2019,04,26,01,09,1.90
2019,04,26,01,10,0.50
2019,04,26,01,11,0.90
2019,04,26,01,12,0.40
2019,04,26,01,13,0.00
2019,04,26,01,14,0.00
2019,04,26,01,15,0.00
2019,04,26,01,16,0.00
2019,04,26,01,17,0.30
2019,04,26,01,18,0.80
2019,04,26,01,19,1.20
2019,04,26,01,20,0.00
2019,04,26,01,21,0.30
2019,04,26,01,22,2.40
2019,04,26,01,23,0.50
2019,04,26,01,24,0.80
2019,04,26,01,25,0.00
2019,04,26,01,26,0.00
2019,04,26,01,27,0.00
2019,04,26,01,28,0.00
2019,04,26,01,29,0.90
2019,04,26,01,30,0.90
2019,04,26,01,31,1.20
2019,04,26,01,32,0.20
2019,04,26,01,33,0.00
2019,04,26,01,34,0.60
2019,04,26,01,35,0.70
2019,04,26,01,36,2.20
2019,04,26,01,37,3.50
2019,04,26,01,38,2.30
2019,04,26,01,39,3.50
2019,04,26,01,40,3.20
2019,04,26,01,41,1.20
2019,04,26,01,42,0.30
2019,04,26,01,43,0.00
2019,04,26,01,44,1.70
2019,04,26,01,45,1.70
2019,04,26,01,46,2.20
2019,04,26,01,47,1.30
2019,04,26,01,48,0.80
2019,04,26,01,49,0.30
2019,04,26,01,50,0.30
2019,04,26,01,51,0.60
2019,04,26,01,52,0.00
2019,04,26,01,53,0.00
2019,04,26,01,54,0.00
2019,04,26,01,55,0.00
2019,04,26,01,56,0.10
2019,04,26,01,57,0.90
2019,04,26,01,58,0.40
2019,04,26,01,59,0.00
2019,04,26,02,00,0.00
2019,04,26,02,01,0.00
2019,04,26,02,02,0.00
2019,04,26,02,03,0.00
2019,04,26,02,04,0.00
2019,04,26,02,05,0.00
2019,04,26,02,06,0.10
2019,04,26,02,07,0.80
2019,04,26,02,08,0.10
2019,04,26,02,09,0.10
2019,04,26,02,10,0.00
2019,04,26,02,11,0.00
2019,04,26,02,12,0.80
2019,04,26,02,13,0.60
2019,04,26,02,14,0.20
2019,04,26,02,15,1.50
2019,04,26,02,16,1.70
2019,04,26,02,17,0.50
2019,04,26,02,18,0.00
2019,04,26,02,19,0.40
2019,04,26,02,20,0.90
2019,04,26,02,21,0.00
2019,04,26,02,22,0.30
2019,04,26,02,23,0.50
2019,04,26,02,24,0.00
2019,04,26,02,25,0.00
2019,04,26,02,26,0.00
2019,04,26,02,27,0.10
2019,04,26,02,28,0.00
2019,04,26,02,29,0.00
2019,04,26,02,30,0.00
2019,04,26,02,31,0.00
2019,04,26,02,32,0.00
2019,04,26,02,33,0.00
2019,04,26,02,34,0.40
2019,04,26,02,35,0.00
2019,04,26,02,36,0.60
2019,04,26,02,37,1.30
2019,04,26,02,38,1.10
2019,04,26,02,39,0.50
2019,04,26,02,40,0.00
2019,04,26,02,41,0.20
2019,04,26,02,42,1.40
2019,04,26,02,43,1.60
2019,04,26,02,44,2.40
2019,04,26,02,45,1.40
2019,04,26,02,46,0.50
2019,04,26,02,47,1.00
2019,04,26,02,48,0.40
2019,04,26,02,49,0.50
2019,04,26,02,50,0.00
2019,04,26,02,51,0.00
2019,04,26,02,52,0.00
2019,04,26,02,53,0.10
2019,04,26,02,54,1.90
2019,04,26,02,55,1.00
2019,04,26,02,56,0.60
2019,04,26,02,57,0.10
2019,04,26,02,58,0.00
2019,04,26,02,59,0.00
2019,04,26,03,00,0.00
2019,04,26,03,01,0.00
2019,04,26,03,02,0.10
2019,04,26,03,03,1.30
2019,04,26,03,04,0.30
2019,04,26,03,05,0.00
2019,04,26,03,06,1.00
2019,04,26,03,07,0.80
2019,04,26,03,08,0.90
2019,04,26,03,09,3.80
2019,04,26,03,10,3.20
2019,04,26,03,11,0.40
2019,04,26,03,12,1.10
2019,04,26,03,13,1.70
2019,04,26,03,14,1.80
2019,04,26,03,15,1.30
2019,04,26,03,16,1.30
2019,04,26,03,17,2.20
2019,04,26,03,18,1.10
2019,04,26,03,19,1.60
2019,04,26,03,20,1.50
2019,04,26,03,21,0.90
2019,04,26,03,22,2.10
2019,04,26,03,23,2.10
2019,04,26,03,24,2.90
2019,04,26,03,25,2.80
2019,04,26,03,26,1.30
2019,04,26,03,27,0.40
2019,04,26,03,28,1.50
2019,04,26,03,29,1.80
2019,04,26,03,30,2.60
2019,04,26,03,31,0.90
2019,04,26,03,32,0.10
2019,04,26,03,33,0.00
2019,04,26,03,34,0.90
2019,04,26,03,35,1.20
2019,04,26,03,36,2.40
2019,04,26,03,37,2.00
2019,04,26,03,38,0.50
2019,04,26,03,39,0.20
2019,04,26,03,40,0.50
2019,04,26,03,41,0.00
2019,04,26,03,42,0.20
2019,04,26,03,43,0.20
2019,04,26,03,44,0.20
2019,04,26,03,45,0.30
2019,04,26,03,46,0.60
2019,04,26,03,47,1.70
2019,04,26,03,48,1.00
2019,04,26,03,49,0.50
2019,04,26,03,50,0.00
2019,04,26,03,51,0.50
2019,04,26,03,52,0.90
2019,04,26,03,53,0.40
2019,04,26,03,54,1.30
2019,04,26,03,55,1.60
2019,04,26,03,56,0.90
2019,04,26,03,57,1.30
2019,04,26,03,58,3.60
2019,04,26,03,59,3.00
2019,04,26,04,00,3.60
2019,04,26,04,01,2.20
2019,04,26,04,02,1.30
2019,04,26,04,03,0.40
2019,04,26,04,04,0.00
2019,04,26,04,05,0.00
2019,04,26,04,06,0.10
2019,04,26,04,07,0.10
2019,04,26,04,08,0.00
2019,04,26,04,09,0.60
2019,04,26,04,10,3.70
2019,04,26,04,11,3.30
2019,04,26,04,12,1.20
2019,04,26,04,13,1.70
2019,04,26,04,14,0.80
2019,04,26,04,15,0.00
2019,04,26,04,16,0.10
2019,04,26,04,17,2.10
2019,04,26,04,18,2.60
2019,04,26,04,19,0.80
2019,04,26,04,20,1.70
2019,04,26,04,21,2.30
2019,04,26,04,22,2.50
2019,04,26,04,23,2.50
2019,04,26,04,24,1.80
2019,04,26,04,25,0.50
2019,04,26,04,26,0.20
2019,04,26,04,27,1.40
2019,04,26,04,28,2.40
2019,04,26,04,29,0.90
2019,04,26,04,30,0.30
2019,04,26,04,31,0.30
2019,04,26,04,32,0.60
2019,04,26,04,33,2.10
2019,04,26,04,34,1.90
2019,04,26,04,35,1.20
2019,04,26,04,36,2.50
2019,04,26,04,37,3.50
2019,04,26,04,38,1.70
2019,04,26,04,39,0.40
2019,04,26,04,40,0.50
2019,04,26,04,41,2.20
2019,04,26,04,42,3.20
2019,04,26,04,43,3.70
2019,04,26,04,44,5.40
2019,04,26,04,45,3.70
2019,04,26,04,46,3.40
2019,04,26,04,47,3.70
2019,04,26,04,48,3.10
2019,04,26,04,49,3.10
2019,04,26,04,50,3.20
2019,04,26,04,51,3.80
2019,04,26,04,52,1.90
2019,04,26,04,53,1.20
2019,04,26,04,54,1.60
2019,04,26,04,55,2.30
2019,04,26,04,56,2.10
2019,04,26,04,57,0.50
2019,04,26,04,58,0.10
2019,04,26,04,59,0.00
2019,04,26,05,00,1.00
2019,04,26,05,01,0.30
2019,04,26,05,02,0.80
2019,04,26,05,03,1.90
2019,04,26,05,04,0.60
2019,04,26,05,05,0.20
2019,04,26,05,06,2.60
2019,04,26,05,07,2.30
2019,04,26,05,08,1.80
2019,04,26,05,09,1.80
2019,04,26,05,10,2.00
2019,04,26,05,11,2.70
2019,04,26,05,12,1.30
2019,04,26,05,13,0.20
2019,04,26,05,14,1.60
2019,04,26,05,15,1.70
2019,04,26,05,16,1.20
2019,04,26,05,17,2.00
2019,04,26,05,18,1.60
2019,04,26,05,19,1.40
2019,04,26,05,20,1.90
2019,04,26,05,21,1.60
2019,04,26,05,22,3.00
2019,04,26,05,23,4.70
2019,04,26,05,24,4.00
2019,04,26,05,25,6.00
2019,04,26,05,26,5.60
2019,04,26,05,27,3.60
2019,04,26,05,28,2.60
2019,04,26,05,29,6.50
2019,04,26,05,30,2.70
2019,04,26,05,31,2.00
2019,04,26,05,32,2.20
2019,04,26,05,33,2.00
2019,04,26,05,34,1.70
2019,04,26,05,35,2.60
2019,04,26,05,36,4.30
2019,04,26,05,37,3.00
2019,04,26,05,38,2.40
2019,04,26,05,39,2.40
2019,04,26,05,40,2.20
2019,04,26,05,41,2.40
2019,04,26,05,42,2.00
2019,04,26,05,43,3.30
2019,04,26,05,44,1.80
2019,04,26,05,45,1.20
2019,04,26,05,46,3.00
2019,04,26,05,47,1.40
2019,04,26,05,48,1.20
2019,04,26,05,49,1.40
2019,04,26,05,50,2.10
2019,04,26,05,51,1.80
2019,04,26,05,52,0.10
2019,04,26,05,53,0.10
2019,04,26,05,54,1.10
2019,04,26,05,55,0.80
2019,04,26,05,56,0.00
2019,04,26,05,57,0.00
2019,04,26,05,58,0.00
2019,04,26,05,59,0.00
2019,04,26,06,00,0.00
2019,04,26,06,01,0.00
2019,04,26,06,02,0.00
2019,04,26,06,03,0.10
2019,04,26,06,04,0.40
2019,04,26,06,05,1.40
2019,04,26,06,06,1.40
2019,04,26,06,07,1.10
2019,04,26,06,08,0.10
2019,04,26,06,09,0.10
2019,04,26,06,10,0.10
2019,04,26,06,11,1.70
2019,04,26,06,12,0.70
2019,04,26,06,13,0.00
2019,04,26,06,14,0.00
2019,04,26,06,15,0.00
2019,04,26,06,16,0.00
2019,04,26,06,17,0.00
2019,04,26,06,18,0.00
2019,04,26,06,19,0.00
2019,04,26,06,20,0.00
2019,04,26,06,21,0.00
2019,04,26,06,22,0.00
2019,04,26,06,23,0.00
2019,04,26,06,24,0.00
2019,04,26,06,25,0.00
2019,04,26,06,26,0.00
2019,04,26,06,27,0.20
2019,04,26,06,28,0.10
2019,04,26,06,29,0.00
2019,04,26,06,30,0.00
2019,04,26,06,31,0.00
2019,04,26,06,32,0.00
2019,04,26,06,33,0.00
2019,04,26,06,34,0.00
2019,04,26,06,35,0.00
2019,04,26,06,36,0.00
2019,04,26,06,37,0.00
2019,04,26,06,38,0.00
2019,04,26,06,39,0.00
2019,04,26,06,40,0.00
2019,04,26,06,41,0.00
2019,04,26,06,42,0.10
2019,04,26,06,43,0.00
2019,04,26,06,44,0.00
2019,04,26,06,45,0.00
2019,04,26,06,46,0.00
2019,04,26,06,47,0.00
2019,04,26,06,48,0.00
2019,04,26,06,49,0.00
2019,04,26,06,50,0.00
2019,04,26,06,51,0.00
2019,04,26,06,52,0.00
2019,04,26,06,53,0.10
2019,04,26,06,54,0.00
2019,04,26,06,55,0.20
2019,04,26,06,56,0.50
2019,04,26,06,57,0.30
2019,04,26,06,58,0.20
2019,04,26,06,59,1.00
2019,04,26,07,00,1.10
2019,04,26,07,01,0.60
2019,04,26,07,02,0.80
2019,04,26,07,03,0.80
2019,04,26,07,04,1.30
2019,04,26,07,05,0.00
2019,04,26,07,06,0.70
2019,04,26,07,07,0.00
2019,04,26,07,08,0.00
2019,04,26,07,09,0.00
2019,04,26,07,10,0.10
2019,04,26,07,11,0.00
2019,04,26,07,12,0.10
2019,04,26,07,13,0.20
2019,04,26,07,14,0.80
2019,04,26,07,15,0.50
2019,04,26,07,16,0.00
2019,04,26,07,17,0.20
2019,04,26,07,18,0.00
2019,04,26,07,19,0.00
2019,04,26,07,20,0.00
2019,04,26,07,21,0.00
2019,04,26,07,22,0.00
2019,04,26,07,23,0.00
2019,04,26,07,24,0.00
2019,04,26,07,25,0.00
2019,04,26,07,26,0.00
2019,04,26,07,27,0.00
2019,04,26,07,28,0.90
2019,04,26,07,29,0.10
2019,04,26,07,30,0.00
2019,04,26,07,31,0.10
2019,04,26,07,32,0.00
2019,04,26,07,33,0.00
2019,04,26,07,34,0.00
2019,04,26,07,35,0.00
2019,04,26,07,36,0.00
2019,04,26,07,37,0.00
2019,04,26,07,38,0.00
2019,04,26,07,39,0.00
2019,04,26,07,40,0.00
2019,04,26,07,41,0.00
2019,04,26,07,42,0.00
2019,04,26,07,43,0.00
2019,04,26,07,44,0.00
2019,04,26,07,45,0.00
2019,04,26,07,46,0.00
2019,04,26,07,47,0.00
2019,04,26,07,48,0.00
2019,04,26,07,49,0.00
2019,04,26,07,50,0.00
2019,04,26,07,51,0.00
2019,04,26,07,52,0.10
2019,04,26,07,53,0.00
2019,04,26,07,54,0.00
2019,04,26,07,55,0.30
2019,04,26,07,56,0.80
2019,04,26,07,57,0.10
2019,04,26,07,58,0.00
2019,04,26,07,59,0.00
2019,04,26,08,00,0.00
2019,04,26,08,01,0.00
2019,04,26,08,02,0.10
2019,04,26,08,03,0.90
2019,04,26,08,04,1.30
2019,04,26,08,05,0.90
2019,04,26,08,06,0.80
2019,04,26,08,07,0.50
2019,04,26,08,08,0.10
2019,04,26,08,09,0.00
2019,04,26,08,10,0.00
2019,04,26,08,11,0.00
2019,04,26,08,12,0.00
2019,04,26,08,13,0.00
2019,04,26,08,14,0.10
2019,04,26,08,15,1.50
2019,04,26,08,16,1.10
2019,04,26,08,17,1.10
2019,04,26,08,18,0.10
2019,04,26,08,19,0.00
2019,04,26,08,20,0.00
2019,04,26,08,21,0.10
2019,04,26,08,22,1.00
2019,04,26,08,23,0.60
2019,04,26,08,24,0.40
2019,04,26,08,25,0.70
2019,04,26,08,26,0.70
2019,04,26,08,27,0.20
2019,04,26,08,28,1.10
2019,04,26,08,29,1.40
2019,04,26,08,30,1.10
2019,04,26,08,31,1.20
2019,04,26,08,32,1.20
2019,04,26,08,33,1.40
2019,04,26,08,34,1.10
2019,04,26,08,35,0.20
2019,04,26,08,36,0.30
2019,04,26,08,37,0.60
2019,04,26,08,38,0.90
2019,04,26,08,39,0.80
2019,04,26,08,40,0.20
2019,04,26,08,41,0.90
2019,04,26,08,42,1.30
2019,04,26,08,43,1.50
2019,04,26,08,44,1.20
2019,04,26,08,45,0.40
2019,04,26,08,46,0.90
2019,04,26,08,47,1.20
2019,04,26,08,48,1.70
2019,04,26,08,49,1.70
2019,04,26,08,50,2.30
2019,04,26,08,51,1.60
2019,04,26,08,52,1.90
2019,04,26,08,53,2.00
2019,04,26,08,54,3.00
2019,04,26,08,55,1.50
2019,04,26,08,56,0.40
2019,04,26,08,57,0.20
2019,04,26,08,58,2.80
2019,04,26,08,59,2.50
2019,04,26,09,00,3.00
2019,04,26,09,01,2.50
2019,04,26,09,02,2.30
2019,04,26,09,03,1.70
2019,04,26,09,04,1.10
2019,04,26,09,05,4.40
2019,04,26,09,06,1.00
2019,04,26,09,07,2.90
2019,04,26,09,08,2.60
2019,04,26,09,09,1.40
2019,04,26,09,10,3.60
2019,04,26,09,11,4.50
2019,04,26,09,12,2.80
2019,04,26,09,13,2.30
2019,04,26,09,14,4.00
2019,04,26,09,15,3.90
2019,04,26,09,16,6.00
2019,04,26,09,17,4.20
2019,04,26,09,18,9.30
2019,04,26,09,19,4.80
2019,04,26,09,20,1.60
2019,04,26,09,21,3.70
2019,04,26,09,22,4.20
2019,04,26,09,23,3.90
2019,04,26,09,24,7.60
2019,04,26,09,25,4.00
2019,04,26,09,26,5.90
2019,04,26,09,27,6.80
2019,04,26,09,28,4.40
2019,04,26,09,29,6.70
2019,04,26,09,30,3.60
2019,04,26,09,31,4.90
2019,04,26,09,32,2.90
2019,04,26,09,33,3.80
2019,04,26,09,34,8.60
2019,04,26,09,35,5.30
2019,04,26,09,36,4.00
2019,04,26,09,37,4.80
2019,04,26,09,38,4.80
2019,04,26,09,39,3.60
2019,04,26,09,40,3.30
2019,04,26,09,41,3.50
2019,04,26,09,42,2.30
2019,04,26,09,43,3.80
2019,04,26,09,44,6.80
2019,04,26,09,45,8.70
2019,04,26,09,46,3.40
2019,04,26,09,47,6.80
2019,04,26,09,48,10.00
2019,04,26,09,49,10.80
2019,04,26,09,50,10.30
2019,04,26,09,51,7.20
2019,04,26,09,52,6.80
2019,04,26,09,53,9.10
2019,04,26,09,54,5.50
2019,04,26,09,55,5.60
2019,04,26,09,56,5.40
2019,04,26,09,57,4.80
2019,04,26,09,58,4.70
2019,04,26,09,59,7.60
2019,04,26,10,00,4.90
2019,04,26,10,01,5.30
2019,04,26,10,02,5.90
2019,04,26,10,03,11.80
2019,04,26,10,04,6.70
2019,04,26,10,05,8.20
2019,04,26,10,06,6.70
2019,04,26,10,07,6.90
2019,04,26,10,08,6.30
2019,04,26,10,09,3.00
2019,04,26,10,10,6.30
2019,04,26,10,11,5.80
2019,04,26,10,12,10.60
2019,04,26,10,13,4.70
2019,04,26,10,14,3.20
2019,04,26,10,15,6.60
2019,04,26,10,16,6.50
2019,04,26,10,17,6.50
2019,04,26,10,18,7.60
2019,04,26,10,19,7.30
2019,04,26,10,20,5.40
2019,04,26,10,21,7.20
2019,04,26,10,22,4.50
2019,04,26,10,23,5.80
2019,04,26,10,24,7.90
2019,04,26,10,25,2.10
2019,04,26,10,26,6.80
2019,04,26,10,27,9.40
2019,04,26,10,28,5.00
2019,04,26,10,29,6.20
2019,04,26,10,30,5.30
2019,04,26,10,31,3.30
2019,04,26,10,32,4.10
2019,04,26,10,33,4.30
2019,04,26,10,34,4.80
2019,04,26,10,35,3.50
2019,04,26,10,36,6.40
2019,04,26,10,37,5.30
2019,04,26,10,38,5.00
2019,04,26,10,39,10.20
2019,04,26,10,40,4.50
2019,04,26,10,41,6.90
2019,04,26,10,42,8.60
2019,04,26,10,43,7.20
2019,04,26,10,44,7.20
2019,04,26,10,45,5.70
2019,04,26,10,46,10.30
2019,04,26,10,47,11.30
2019,04,26,10,48,6.10
2019,04,26,10,49,8.80
2019,04,26,10,50,9.20
2019,04,26,10,51,8.60
2019,04,26,10,52,8.50
2019,04,26,10,53,11.80
2019,04,26,10,54,8.90
2019,04,26,10,55,10.50
2019,04,26,10,56,11.70
2019,04,26,10,57,8.10
2019,04,26,10,58,9.40
2019,04,26,10,59,7.30
2019,04,26,11,00,5.00
2019,04,26,11,01,7.50
2019,04,26,11,02,5.40
2019,04,26,11,03,7.10
2019,04,26,11,04,5.70
2019,04,26,11,05,3.40
2019,04,26,11,06,8.00
2019,04,26,11,07,10.00
2019,04,26,11,08,7.10
2019,04,26,11,09,8.10
2019,04,26,11,10,8.30
2019,04,26,11,11,8.60
2019,04,26,11,12,7.00
2019,04,26,11,13,8.70
2019,04,26,11,14,6.10
2019,04,26,11,15,6.60
2019,04,26,11,16,7.90
2019,04,26,11,17,5.20
2019,04,26,11,18,6.40
2019,04,26,11,19,4.80
2019,04,26,11,20,5.10
2019,04,26,11,21,5.60
2019,04,26,11,22,9.30
2019,04,26,11,23,5.70
2019,04,26,11,24,3.50
2019,04,26,11,25,4.40
2019,04,26,11,26,3.50
2019,04,26,11,27,5.10
2019,04,26,11,28,6.50
2019,04,26,11,29,6.80
2019,04,26,11,30,4.80
2019,04,26,11,31,5.30
2019,04,26,11,32,7.20
2019,04,26,11,33,5.40
2019,04,26,11,34,11.30
2019,04,26,11,35,8.50
2019,04,26,11,36,8.80
2019,04,26,11,37,4.50
2019,04,26,11,38,4.10
2019,04,26,11,39,3.50
2019,04,26,11,40,3.00
2019,04,26,11,41,5.40
2019,04,26,11,42,5.80
2019,04,26,11,43,6.90
2019,04,26,11,44,6.00
2019,04,26,11,45,8.80
2019,04,26,11,46,7.10
2019,04,26,11,47,6.30
2019,04,26,11,48,3.90
2019,04,26,11,49,4.50
2019,04,26,11,50,4.90
2019,04,26,11,51,7.40
2019,04,26,11,52,4.60
2019,04,26,11,53,10.60
2019,04,26,11,54,8.60
2019,04,26,11,55,9.40
2019,04,26,11,56,7.20
2019,04,26,11,57,6.30
2019,04,26,11,58,4.60
2019,04,26,11,59,4.80
2019,04,26,12,00,8.50
2019,04,26,12,01,8.20
2019,04,26,12,02,8.10
2019,04,26,12,03,9.90
2019,04,26,12,04,11.30
2019,04,26,12,05,9.80
2019,04,26,12,06,3.00
2019,04,26,12,07,4.20
2019,04,26,12,08,6.70
2019,04,26,12,09,5.10
2019,04,26,12,10,8.30
2019,04,26,12,11,8.30
2019,04,26,12,12,11.60
2019,04,26,12,13,5.70
2019,04,26,12,14,8.10
2019,04,26,12,15,4.90
2019,04,26,12,16,3.50
2019,04,26,12,17,6.20
2019,04,26,12,18,7.00
2019,04,26,12,19,8.30
2019,04,26,12,20,6.30
2019,04,26,12,21,11.60
2019,04,26,12,22,9.10
2019,04,26,12,23,5.00
2019,04,26,12,24,6.10
2019,04,26,12,25,9.20
2019,04,26,12,26,4.40
2019,04,26,12,27,7.80
2019,04,26,12,28,4.80
2019,04,26,12,29,7.50
2019,04,26,12,30,4.90
2019,04,26,12,31,4.40
2019,04,26,12,32,4.20
2019,04,26,12,33,3.40
2019,04,26,12,34,3.40
2019,04,26,12,35,3.40
2019,04,26,12,36,5.40
2019,04,26,12,37,5.20
2019,04,26,12,38,3.80
2019,04,26,12,39,7.90
2019,04,26,12,40,5.40
2019,04,26,12,41,3.70
2019,04,26,12,42,2.20
2019,04,26,12,43,6.40
2019,04,26,12,44,7.40
2019,04,26,12,45,7.70
2019,04,26,12,46,10.30
2019,04,26,12,47,4.90
2019,04,26,12,48,4.70
2019,04,26,12,49,9.40
2019,04,26,12,50,9.10
2019,04,26,12,51,5.60
2019,04,26,12,52,5.30
2019,04,26,12,53,7.60
2019,04,26,12,54,7.00
2019,04,26,12,55,5.60
2019,04,26,12,56,4.00
2019,04,26,12,57,8.80
2019,04,26,12,58,5.60
2019,04,26,12,59,3.20
2019,04,26,13,00,13.50
2019,04,26,13,01,8.20
2019,04,26,13,02,10.00
2019,04,26,13,03,8.60
2019,04,26,13,04,2.60
2019,04,26,13,05,3.80
2019,04,26,13,06,4.60
2019,04,26,13,07,5.40
2019,04,26,13,08,4.00
2019,04,26,13,09,5.90
2019,04,26,13,10,8.50
2019,04,26,13,11,8.70
2019,04,26,13,12,6.10
2019,04,26,13,13,8.30
2019,04,26,13,14,6.30
2019,04,26,13,15,4.50
2019,04,26,13,16,5.70
2019,04,26,13,17,3.20
2019,04,26,13,18,5.90
2019,04,26,13,19,10.30
2019,04,26,13,20,12.80
2019,04,26,13,21,8.40
2019,04,26,13,22,7.90
2019,04,26,13,23,8.80
2019,04,26,13,24,9.70
2019,04,26,13,25,13.60
2019,04,26,13,26,10.80
2019,04,26,13,27,14.80
2019,04,26,13,28,9.50
2019,04,26,13,29,7.10
2019,04,26,13,30,6.60
2019,04,26,13,31,10.20
2019,04,26,13,32,5.80
2019,04,26,13,33,4.10
2019,04,26,13,34,11.60
2019,04,26,13,35,11.30
2019,04,26,13,36,8.70
2019,04,26,13,37,14.80
2019,04,26,13,38,8.00
2019,04,26,13,39,5.70
2019,04,26,13,40,8.60
2019,04,26,13,41,8.50
2019,04,26,13,42,5.80
2019,04,26,13,43,2.80
2019,04,26,13,44,12.20
2019,04,26,13,45,7.50
2019,04,26,13,46,10.50
2019,04,26,13,47,6.60
2019,04,26,13,48,14.10
2019,04,26,13,49,7.90
2019,04,26,13,50,3.70
2019,04,26,13,51,4.00
2019,04,26,13,52,10.20
2019,04,26,13,53,6.70
2019,04,26,13,54,5.00
2019,04,26,13,55,4.40
2019,04,26,13,56,6.80
2019,04,26,13,57,6.80
2019,04,26,13,58,6.30
2019,04,26,13,59,8.50
2019,04,26,14,00,8.70
2019,04,26,14,01,6.30
2019,04,26,14,02,4.90
2019,04,26,14,03,9.60
2019,04,26,14,04,9.90
2019,04,26,14,05,7.30
2019,04,26,14,06,5.30
2019,04,26,14,07,4.00
2019,04,26,14,08,4.90
2019,04,26,14,09,8.50
2019,04,26,14,10,8.90
2019,04,26,14,11,7.30
2019,04,26,14,12,5.50
2019,04,26,14,13,3.60
2019,04,26,14,14,12.90
2019,04,26,14,15,13.20
2019,04,26,14,16,11.00
2019,04,26,14,17,8.40
2019,04,26,14,18,5.90
2019,04,26,14,19,3.40
2019,04,26,14,20,4.20
2019,04,26,14,21,7.90
2019,04,26,14,22,10.50
2019,04,26,14,23,10.40
2019,04,26,14,24,8.60
2019,04,26,14,25,6.00
2019,04,26,14,26,10.10
2019,04,26,14,27,11.80
2019,04,26,14,28,9.70
2019,04,26,14,29,10.00
2019,04,26,14,30,13.60
2019,04,26,14,31,11.10
2019,04,26,14,32,8.40
2019,04,26,14,33,8.90
2019,04,26,14,34,6.70
2019,04,26,14,35,11.30
2019,04,26,14,36,9.10
2019,04,26,14,37,4.40
2019,04,26,14,38,7.00
2019,04,26,14,39,7.30
2019,04,26,14,40,8.60
2019,04,26,14,41,7.30
2019,04,26,14,42,8.20
2019,04,26,14,43,4.20
2019,04,26,14,44,4.50
2019,04,26,14,45,5.20
2019,04,26,14,46,2.60
2019,04,26,14,47,6.60
2019,04,26,14,48,7.20
2019,04,26,14,49,8.90
2019,04,26,14,50,5.50
2019,04,26,14,51,8.00
2019,04,26,14,52,4.50
2019,04,26,14,53,4.70
2019,04,26,14,54,7.10
2019,04,26,14,55,7.60
2019,04,26,14,56,12.80
2019,04,26,14,57,5.20
2019,04,26,14,58,12.80
2019,04,26,14,59,9.00
2019,04,26,15,00,9.10
2019,04,26,15,01,4.20
2019,04,26,15,02,7.00
2019,04,26,15,03,6.00
2019,04,26,15,04,8.80
2019,04,26,15,05,10.90
2019,04,26,15,06,6.30
2019,04,26,15,07,6.10
2019,04,26,15,08,5.40
2019,04,26,15,09,6.40
2019,04,26,15,10,9.80
2019,04,26,15,11,10.00
2019,04,26,15,12,11.20
2019,04,26,15,13,11.50
2019,04,26,15,14,9.40
2019,04,26,15,15,7.00
2019,04,26,15,16,5.20
2019,04,26,15,17,3.20
2019,04,26,15,18,3.40
2019,04,26,15,19,3.90
2019,04,26,15,20,5.30
2019,04,26,15,21,6.00
2019,04,26,15,22,8.90
2019,04,26,15,23,5.80
2019,04,26,15,24,6.60
2019,04,26,15,25,9.00
2019,04,26,15,26,8.50
2019,04,26,15,27,5.40
2019,04,26,15,28,6.20
2019,04,26,15,29,9.70
2019,04,26,15,30,4.80
2019,04,26,15,31,5.60
2019,04,26,15,32,6.30
2019,04,26,15,33,9.30
2019,04,26,15,34,9.40
2019,04,26,15,35,5.90
2019,04,26,15,36,8.10
2019,04,26,15,37,6.90
2019,04,26,15,38,5.80
2019,04,26,15,39,5.20
2019,04,26,15,40,5.20
2019,04,26,15,41,4.10
2019,04,26,15,42,4.20
2019,04,26,15,43,4.60
2019,04,26,15,44,5.50
2019,04,26,15,45,3.70
2019,04,26,15,46,2.20
2019,04,26,15,47,2.60
2019,04,26,15,48,2.40
2019,04,26,15,49,3.80
2019,04,26,15,50,8.10
2019,04,26,15,51,6.90
2019,04,26,15,52,4.70
2019,04,26,15,53,3.90
2019,04,26,15,54,3.80
2019,04,26,15,55,2.90
2019,04,26,15,56,2.60
2019,04,26,15,57,1.90
2019,04,26,15,58,1.10
2019,04,26,15,59,1.40
2019,04,26,16,00,2.80
2019,04,26,16,01,3.90
2019,04,26,16,02,3.30
2019,04,26,16,03,1.80
2019,04,26,16,04,4.20
2019,04,26,16,05,3.80
2019,04,26,16,06,4.50
2019,04,26,16,07,5.20
2019,04,26,16,08,2.20
2019,04,26,16,09,3.00
2019,04,26,16,10,3.40
2019,04,26,16,11,2.50
2019,04,26,16,12,2.10
2019,04,26,16,13,1.50
2019,04,26,16,14,3.40
2019,04,26,16,15,2.20
2019,04,26,16,16,1.00
2019,04,26,16,17,1.00
2019,04,26,16,18,3.30
2019,04,26,16,19,3.00
2019,04,26,16,20,2.50
2019,04,26,16,21,1.90
2019,04,26,16,22,0.80
2019,04,26,16,23,0.40
2019,04,26,16,24,1.40
2019,04,26,16,25,4.60
2019,04,26,16,26,4.90
2019,04,26,16,27,6.70
2019,04,26,16,28,4.60
2019,04,26,16,29,5.30
2019,04,26,16,30,7.00
2019,04,26,16,31,5.60
2019,04,26,16,32,4.60
2019,04,26,16,33,2.10
2019,04,26,16,34,2.70
2019,04,26,16,35,3.80
2019,04,26,16,36,2.50
2019,04,26,16,37,2.90
2019,04,26,16,38,5.00
2019,04,26,16,39,5.70
2019,04,26,16,40,3.20
2019,04,26,16,41,1.30
2019,04,26,16,42,1.60
2019,04,26,16,43,4.40
2019,04,26,16,44,4.90
2019,04,26,16,45,4.10
2019,04,26,16,46,2.10
2019,04,26,16,47,1.00
2019,04,26,16,48,1.60
2019,04,26,16,49,1.00
2019,04,26,16,50,2.10
2019,04,26,16,51,3.30
2019,04,26,16,52,1.80
2019,04,26,16,53,2.50
2019,04,26,16,54,1.70
2019,04,26,16,55,2.50
2019,04,26,16,56,3.30
2019,04,26,16,57,2.30
2019,04,26,16,58,3.60
2019,04,26,16,59,2.90
2019,04,26,17,00,1.60
2019,04,26,17,01,1.90
2019,04,26,17,02,2.50
2019,04,26,17,03,2.90
2019,04,26,17,04,1.90
2019,04,26,17,05,2.30
2019,04,26,17,06,0.70
2019,04,26,17,07,1.40
2019,04,26,17,08,1.60
2019,04,26,17,09,2.40
2019,04,26,17,10,2.40
2019,04,26,17,11,3.30
2019,04,26,17,12,1.60
2019,04,26,17,13,1.10
2019,04,26,17,14,2.80
2019,04,26,17,15,2.00
2019,04,26,17,16,2.30
2019,04,26,17,17,1.00
2019,04,26,17,18,1.10
2019,04,26,17,19,1.50
2019,04,26,17,20,1.00
2019,04,26,17,21,0.70
2019,04,26,17,22,2.00
2019,04,26,17,23,1.20
2019,04,26,17,24,1.60
2019,04,26,17,25,1.10
2019,04,26,17,26,1.00
2019,04,26,17,27,0.90
2019,04,26,17,28,2.10
2019,04,26,17,29,2.40
2019,04,26,17,30,2.90
2019,04,26,17,31,1.10
2019,04,26,17,32,0.70
2019,04,26,17,33,2.10
2019,04,26,17,34,0.60
2019,04,26,17,35,1.30
2019,04,26,17,36,1.40
2019,04,26,17,37,2.30
2019,04,26,17,38,0.60
2019,04,26,17,39,2.80
2019,04,26,17,40,1.90
2019,04,26,17,41,0.20
2019,04,26,17,42,2.20
2019,04,26,17,43,2.10
2019,04,26,17,44,0.70
2019,04,26,17,45,1.70
2019,04,26,17,46,2.30
2019,04,26,17,47,2.40
2019,04,26,17,48,2.40
2019,04,26,17,49,1.10
2019,04,26,17,50,0.80
2019,04,26,17,51,1.60
2019,04,26,17,52,1.40
2019,04,26,17,53,1.30
2019,04,26,17,54,0.90
2019,04,26,17,55,1.30
2019,04,26,17,56,2.40
2019,04,26,17,57,2.50
2019,04,26,17,58,2.90
2019,04,26,17,59,2.90
2019,04,26,18,00,1.60
2019,04,26,18,01,1.30
2019,04,26,18,02,2.10
2019,04,26,18,03,1.00
2019,04,26,18,04,2.70